This demonstration page uses our WeatherBlox Daily Observations layout. Learn more.

Left ArrowRight Arrow

Hourly Observations for November 28, 2020

Temp ( °F °C ) Dew Point ( °F °C ) Humidity (%) Winds ( mph kmh ) Pressure ( in mb ) Visibility ( mi km ) Precip ( " mm )
12:53 am 00:53 Clear 33 0.6 31 -0.6 92 92 Calm 30.13 1020 9 14 0.00 0.00
1:53 am 01:53 Mostly Clear 34 1.1 32 0 92 92 NW 6 9 30.14 1021 10 16 0.00 0.00
2:15 am 02:15 Mostly Cloudy 41 5 36 2.2 82 82 NW 8 13 30.16 1021 10 16 0.00 0.00
2:53 am 02:53 Cloudy 40 4.4 35 1.7 83 83 NNW 9 15 30.16 1022 10 16 0.00 0.00
3:53 am 03:53 Cloudy 39 3.9 33 0.6 79 79 NNW 9 15 30.17 1022 10 16 0.00 0.00
4:53 am 04:53 Cloudy 36 2.2 32 0 86 86 NW 3 6 30.17 1022 10 16 0.00 0.00
5:37 am 05:37 Partly Cloudy 36 2.2 32 0 86 86 WNW 5 7 30.21 1023 10 16 0.00 0.00
5:53 am 05:53 Clear 36 2.2 32 0 86 86 W 3 6 30.19 1023 10 16 0.00 0.00
6:53 am 06:53 Clear 32 0 30 -1.1 92 92 W 3 6 30.21 1023 8 13 0.00 0.00
7:53 am 07:53 Sunny with Mist and Fog 33 0.6 30 -1.1 89 89 WNW 6 9 30.23 1024 5 8 0.00 0.00
8:53 am 08:53 Sunny with Mist and Fog 36 2.2 32 0 86 86 WSW 3 6 30.24 1024 6 10 0.00 0.00
9:53 am 09:53 Sunny 39 3.9 33 0.6 79 79 Calm 30.26 1025 9 14 0.00 0.00
10:53 am 10:53 Sunny 42 5.6 33 0.6 71 71 Calm 30.27 1025 10 16 0.00 0.00
11:53 am 11:53 Sunny 45 7.2 32 0 61 61 WNW 5 7 30.27 1025 10 16 0.00 0.00
12:53 pm 12:53 Sunny 47 8.3 32 0 56 56 Calm 30.24 1024 10 16 0.00 0.00
1:53 pm 13:53 Sunny 48 8.9 32 0 54 54 Calm 30.22 1023 10 16 0.00 0.00
2:53 pm 14:53 Sunny 50 10 32 0 50 50 WSW 6 9 30.19 1023 10 16 0.00 0.00
3:53 pm 15:53 Sunny 49 9.4 27 -2.8 43 43 WSW 3 6 30.20 1023 10 16 0.00 0.00
4:53 pm 16:53 Sunny 47 8.3 28 -2.2 48 48 Calm 30.20 1023 10 16 0.00 0.00
5:53 pm 17:53 Clear 37 2.8 29 -1.7 73 73 Calm 30.20 1023 10 16 0.00 0.00
6:53 pm 18:53 Clear 34 1.1 28 -2.2 79 79 Calm 30.21 1023 10 16 0.00 0.00
7:53 pm 19:53 Clear 32 0 27 -2.8 82 82 Calm 30.19 1023 10 16 0.00 0.00
8:53 pm 20:53 Clear 30 -1.1 26 -3.3 85 85 Calm 30.20 1023 10 16 0.00 0.00
9:53 pm 21:53 Clear 29 -1.7 26 -3.3 89 89 Calm 30.22 1023 10 16 0.00 0.00
10:53 pm 22:53 Clear 28 -2.2 25 -3.9 88 88 Calm 30.21 1023 10 16 0.00 0.00
11:53 pm 23:53 Clear 27 -2.8 24 -4.4 89 89 Calm 30.19 1023 9 14 0.00 0.00

Powered by AerisWeather